Погода в Лабуан-Баджо

Индонезия     8°27′27″S   119°52′27″E
темп.,
°C
ветер,
м/с
пор.,
м/с
влажн.,
%
обл.,
%
осадки,
мм/ч
давл.,
гПа
погр.,
м
2 марта, вт
вт223:00+28ссз127397 1.0 1012294
02:00+28всв117299 1.0 1010321
05:00+27св227547 0.0 1009371
08:00+27св337729 0.0 1011424
11:00+27ссв44770 0.0 1011522
14:00+28с44730 0.0 1008806
17:00+28ссз347157 0.1 1008723
20:00+28с337651 2.2 1010333
3 марта, ср
ср323:00+28ссв237533 2.1 1012329
02:00+28ссв227450 2.6 1010358
05:00+28св33761 0.3 1010332
08:00+27всв33770 0.3 1011288
11:00+28с337233 0.6 1011430
14:00+28ссз447225 0.6 1008570
17:00+29ссз447268 0.0 1008690
20:00+28ссз227484 0.6 1011394
4 марта, чт
чт423:00+28св1173100 0.2 1012226
02:00+28ссв1175100 0.3 1010247
05:00+28с1274100 0.0 1010339
08:00+27всв337774 0.0 1011369
11:00+28ссв227527 0.0 1011301
14:00+28зсз116914 0.0 1009337
17:00+29з126533 0.3 1009343
20:00+29ююз337267 1.2 1011376
5 марта, пт
пт523:00+28ююз2372100 0.9 1011287
02:00+28ю1169100 0.9 1009357
05:00+28ссв2374100 0.0 1009563
08:00+27св3377100 1.1 1011292
11:00+28с337599 2.3 1011364
14:00+28сз236985 3.3 1008472
17:00+28сз226988 0.4 1008575
20:00+28зсз237191 0.4 1010761
6 марта, сб
сб623:00+27юз337996 0.3 1011488
02:00+27ююз117798 0.8 1009445
05:00+27в22806 0.1 1009343
08:00+27всв338020 0.1 1011348
11:00+28ссв447522 1.2 1011607
14:00+28с457311 1.2 1008674
17:00+29с34710 0.0 1008824
20:00+28с34764 0.0 1011656